Date String (YYYY-MM-DD hh:mm:ss) UTC,Instrument flags,Ambient pressure (hPa),Sample flow (lpm),Bypass flow (lpm),Sample temperature (°C),Ambient temperature (°C),ASC tube jacket temperature (°C),LED temperature (°C),Box temperature (°C),Sample RH (%),Span deviation,Mass concentration (μg/m³),Mass concentration (μg/m³),Mass concentration (μg/m³)
DateTimeUTC,F1_M11,P_M11,Q1_M11,Q2_M11,T1_M11,T2_M11,T3_M11,T4_M11,T5_M11,U1_M11,ZSPAN_M11,X0_M11,X2_M11,X1_M11
2022-11-25 18:00:00,,0832.8,5.01,0.00,25.2,24.3,00.0,33.9,27.1,12.2,0000.0,0005.10,0001.32,0000.82
2022-11-25 18:01:00,,0832.8,4.98,0.00,25.2,24.3,00.0,34.0,27.1,12.1,0000.0,0005.10,0001.35,0000.86
2022-11-25 18:02:00,,0832.8,5.01,0.00,25.2,24.3,00.0,34.0,27.1,12.3,0000.0,0005.32,0001.44,0000.90
2022-11-25 18:03:00,,0832.8,4.99,0.00,25.2,24.3,00.0,34.0,27.1,12.1,0000.0,0005.60,0001.50,0000.94
2022-11-25 18:04:00,,0832.7,5.00,0.00,25.3,24.3,00.0,34.0,27.2,12.1,0000.0,0006.14,0001.54,0000.99
2022-11-25 18:05:00,,0832.7,5.00,0.00,25.3,24.3,00.0,34.0,27.2,11.8,0000.0,0006.16,0001.58,0001.02
2022-11-25 18:06:00,,0832.7,4.99,0.00,25.3,24.4,00.0,34.0,27.2,11.9,0000.0,0005.20,0001.61,0001.05
2022-11-25 18:07:00,,0832.8,5.02,0.00,25.3,24.4,00.0,34.1,27.2,11.7,0000.0,0004.41,0001.63,0001.09
2022-11-25 18:08:00,,0832.7,4.98,0.00,25.3,24.4,00.0,34.1,27.2,11.9,0000.0,0004.47,0001.71,0001.12
2022-11-25 18:09:00,,0832.8,5.02,0.00,25.3,24.4,00.0,34.1,27.3,11.5,0000.0,0004.52,0001.72,0001.11
2022-11-25 18:10:00,,0832.7,4.99,0.00,25.4,24.4,00.0,34.1,27.3,12.1,0000.0,0004.04,0001.68,0001.13
2022-11-25 18:11:00,,0832.7,5.02,0.00,25.4,24.4,00.0,34.1,27.3,11.8,0000.0,0003.99,0001.67,0001.13
2022-11-25 18:12:00,,0832.7,4.98,0.00,25.4,24.5,00.0,34.2,27.3,11.9,0000.0,0004.04,0001.72,0001.14
2022-11-25 18:13:00,,0832.7,5.01,0.00,25.4,24.5,00.0,34.2,27.3,12.4,0000.0,0004.06,0001.72,0001.16
2022-11-25 18:14:00,,0832.6,4.98,0.00,25.4,24.5,00.0,34.2,27.3,12.1,0000.0,0004.12,0001.72,0001.18
2022-11-25 18:15:00,,0832.6,5.01,0.00,25.4,24.5,00.0,34.2,27.4,12.2,0000.0,0005.32,0001.75,0001.19
2022-11-25 18:16:00,,0832.6,5.00,0.00,25.5,24.5,00.0,34.2,27.4,12.2,0000.0,0005.36,0001.76,0001.21
2022-11-25 18:17:00,,0832.6,4.99,0.00,25.5,24.5,00.0,34.2,27.4,11.7,0000.0,0005.55,0001.80,0001.22
2022-11-25 18:18:00,,0832.6,5.01,0.00,25.5,24.5,00.0,34.3,27.4,11.9,0000.0,0006.67,0001.82,0001.23
2022-11-25 18:19:00,,0832.6,4.98,0.00,25.5,24.6,00.0,34.3,27.4,12.0,0000.0,0006.62,0001.81,0001.24
2022-11-25 18:20:00,,0832.6,5.01,0.00,25.5,24.6,00.0,34.3,27.5,11.3,0000.0,0007.35,0001.79,0001.24
2022-11-25 18:21:00,,0832.6,4.98,0.00,25.5,24.6,00.0,34.3,27.5,11.2,0000.0,0007.38,0001.77,0001.20
2022-11-25 18:22:00,,0832.5,5.00,0.00,25.6,24.6,00.0,34.3,27.5,11.2,0000.0,0007.64,0001.76,0001.17
2022-11-25 18:23:00,,0832.5,5.01,0.00,25.6,24.6,00.0,34.3,27.5,11.3,0000.0,0007.62,0001.71,0001.14
2022-11-25 18:24:00,,0832.6,4.98,0.00,25.6,24.6,00.0,34.4,27.5,11.5,0000.0,0007.53,0001.66,0001.09
2022-11-25 18:25:00,,0832.5,5.01,0.00,25.6,24.6,00.0,34.4,27.5,11.4,0000.0,0007.34,0001.57,0001.03
2022-11-25 18:26:00,,0832.5,5.01,0.00,25.6,24.7,00.0,34.4,27.6,11.5,0000.0,0005.90,0001.51,0000.97
2022-11-25 18:27:00,,0832.5,4.98,0.00,25.6,24.7,00.0,34.4,27.6,11.4,0000.0,0005.53,0001.44,0000.92
2022-11-25 18:28:00,,0832.5,5.01,0.00,25.6,24.7,00.0,34.4,27.6,11.4,0000.0,0005.36,0001.37,0000.89
2022-11-25 18:29:00,,0832.5,5.00,0.00,25.7,24.7,00.0,34.4,27.6,11.7,0000.0,0004.36,0001.34,0000.88
2022-11-25 18:30:00,,0832.5,4.99,0.00,25.7,24.7,00.0,34.5,27.6,11.8,0000.0,0004.10,0001.29,0000.87
2022-11-25 18:31:00,,0832.5,5.01,0.00,25.7,24.7,00.0,34.5,27.6,12.0,0000.0,0003.50,0001.32,0000.88
2022-11-25 18:32:00,,0832.4,4.99,0.00,25.7,24.7,00.0,34.5,27.6,12.0,0000.0,0003.32,0001.34,0000.93
2022-11-25 18:33:00,,0832.4,5.00,0.00,25.7,24.7,00.0,34.5,27.6,11.6,0000.0,0002.97,0001.35,0000.95
2022-11-25 18:34:00,,0832.4,5.01,0.00,25.7,24.8,00.0,34.5,27.6,11.9,0000.0,0002.74,0001.37,0000.99
2022-11-25 18:35:00,,0832.3,5.00,0.00,25.8,24.8,00.0,34.5,27.7,11.7,0000.0,0002.85,0001.42,0001.03
2022-11-25 18:36:00,,0832.3,5.00,0.00,25.8,24.8,00.0,34.6,27.7,11.7,0000.0,0002.96,0001.50,0001.08
2022-11-25 18:37:00,,0832.3,5.01,0.00,25.8,24.8,00.0,34.6,27.7,11.5,0000.0,0002.94,0001.54,0001.12
2022-11-25 18:38:00,,0832.3,5.00,0.00,25.8,24.8,00.0,34.6,27.7,11.1,0000.0,0002.87,0001.55,0001.13
2022-11-25 18:39:00,,0832.3,5.00,0.00,25.8,24.8,00.0,34.6,27.7,10.5,0000.0,0002.86,0001.53,0001.11
2022-11-25 18:40:00,,0832.2,5.00,0.00,25.8,24.8,00.0,34.6,27.7,10.7,0000.0,0002.66,0001.48,0001.08
2022-11-25 18:41:00,,0832.3,5.00,0.00,25.8,24.8,00.0,34.6,27.8,10.3,0000.0,0002.65,0001.45,0001.04
2022-11-25 18:42:00,,0832.3,5.00,0.00,25.8,24.8,00.0,34.6,27.8,10.3,0000.0,0002.33,0001.35,0000.98
2022-11-25 18:43:00,,0832.2,5.00,0.00,25.8,24.8,00.0,34.6,27.8,10.1,0000.0,0002.17,0001.26,0000.91
2022-11-25 18:44:00,,0832.1,5.00,0.00,25.9,24.8,00.0,34.6,27.8,10.4,0000.0,0003.01,0001.24,0000.87
2022-11-25 18:45:00,,0832.1,5.01,0.00,25.9,24.9,00.0,34.7,27.8,10.6,0000.0,0003.40,0001.21,0000.83
2022-11-25 18:46:00,,0832.1,5.00,0.00,25.9,24.9,00.0,34.7,27.8,10.5,0000.0,0003.24,0001.12,0000.77
2022-11-25 18:47:00,,0832.1,5.00,0.00,25.9,24.9,00.0,34.7,27.8,10.5,0000.0,0003.11,0001.04,0000.72
2022-11-25 18:48:00,,0832.0,4.99,0.00,25.9,24.9,00.0,34.7,27.9,10.5,0000.0,0003.05,0000.99,0000.69
2022-11-25 18:49:00,,0832.0,5.00,0.00,25.9,24.9,00.0,34.7,27.9,10.5,0000.0,0003.38,0000.99,0000.67
2022-11-25 18:50:00,,0832.1,5.02,0.00,25.9,24.9,00.0,34.7,27.8,10.4,0000.0,0003.37,0001.00,0000.69
2022-11-25 18:51:00,,0832.1,5.00,0.00,25.9,24.9,00.0,34.7,27.9,10.4,0000.0,0003.44,0000.99,0000.69
2022-11-25 18:52:00,,0832.1,4.99,0.00,25.9,24.9,00.0,34.7,27.9,10.9,0000.0,0003.84,0000.98,0000.69
2022-11-25 18:53:00,,0832.1,4.99,0.00,26.0,24.9,00.0,34.7,27.9,10.9,0000.0,0003.97,0001.00,0000.73
2022-11-25 18:54:00,,0832.1,5.01,0.00,26.0,24.9,00.0,34.8,27.9,11.0,0000.0,0004.08,0001.01,0000.75
2022-11-25 18:55:00,,0832.0,5.00,0.00,26.0,25.0,00.0,34.8,27.9,11.0,0000.0,0003.16,0001.02,0000.78
2022-11-25 18:56:00,,0832.0,5.00,0.00,26.0,25.0,00.0,34.8,27.9,11.0,0000.0,0002.95,0001.06,0000.80
2022-11-25 18:57:00,,0832.0,5.00,0.00,26.0,25.0,00.0,34.8,27.9,11.1,0000.0,0003.55,0001.13,0000.83
2022-11-25 18:58:00,,0832.0,5.01,0.00,26.0,25.0,00.0,34.8,27.9,11.0,0000.0,0004.03,0001.16,0000.84
2022-11-25 18:59:00,,0832.0,4.99,0.00,26.0,25.0,00.0,34.8,28.0,11.0,0000.0,0004.06,0001.19,0000.85
